Weather History for Ubon Ratchathani, Thailand

Change the Weather History Date:

Sunday, February 23, 2014

  Actual Average Record
Temperature  
Mean Temperature 80 °F -  
Max Temperature 94 °F 95 °F - ()
Min Temperature 65 °F 71 °F - ()
Cooling Degree Days 14    
Growing Degree Days 30 (Base 50)    
Moisture  
Dew Point 66 °F    
Average Humidity 64    
Maximum Humidity 94    
Minimum Humidity 28    
Precipitation  
Precipitation 0.00 in 0.03 in - ()
Sea Level Pressure  
Sea Level Pressure 29.93 in    
Wind  
Wind Speed 2 mph ()    
Max Wind Speed 4 mph    
Max Gust Speed -    
Visibility 5.1 miles    
Events      
T = Trace of Precipitation, MM = Missing Value Source: Averaged Metar Reports

Daily Weather History Graph

Daily Weather History Graph

Search for Another Location

Airport:

Trip Planner

Search our weather history database for the weather conditions in past years. The results will help you decide how hot, cold, wet, or windy it might be!

Date:

Astronomy

Feb. 23, 2014 Rise Set
Actual Time 6:21 AM ICT 6:06 PM ICT
Civil Twilight 5:59 AM ICT 6:28 PM ICT
Nautical Twilight 5:34 AM ICT 6:53 PM ICT
Astronomical Twilight 5:09 AM ICT 7:18 PM ICT
Moon 12:22 AM ICT (2/23) 12:05 PM ICT (2/23)
Length of Visible Light 12h 28m
Length of Day
11h 45m
Last Quarter, 44% of the Moon is Illuminated
Feb 23
Last Quarter
Mar 1
New
Mar 8
First Quarter
Mar 17
Full
Mar 24
Last Quarter

Hourly Weather History & Observations

Time (ICT) Temp. Heat Index Dew Point Humidity Pressure Visibility Wind Dir Wind Speed Gust Speed Precip Events Conditions
1:00 AM 73 °F - 70 °F 86% 29.93 in 5 mi NE 2.3 mph - -   Mist
1:00 AM 73.4 °F - 69.8 °F 88% 29.92 in 5.0 mi NE 2.3 mph - N/A   Unknown
4:00 AM 69 °F - 65 °F 82% 29.91 in 5 mi NNE 2.3 mph - -   Mist
4:00 AM 68.0 °F - 64.4 °F 88% 29.89 in 5.0 mi NNE 2.3 mph - N/A   Unknown
5:00 AM 68.0 °F - 62.6 °F 83% 29.95 in 5.0 mi NNE 2.3 mph - N/A   Unknown
6:00 AM 68.0 °F - 66.2 °F 94% 29.95 in 5.0 mi ENE 2.3 mph - N/A   Unknown
6:30 AM 68.0 °F - 66.2 °F 94% 29.98 in 5.0 mi NE 2.3 mph - N/A   Unknown
7:00 AM 66 °F - 63 °F 88% 30.00 in 5 mi NE 3.5 mph - -   Mist
7:00 AM 68.0 °F - 66.2 °F 94% 29.98 in 5.0 mi NE 3.5 mph - N/A   Unknown
8:00 AM 73.4 °F - 66.2 °F 78% 30.01 in 4.3 mi NE 3.5 mph - N/A   Unknown
9:00 AM 78.8 °F - 68.0 °F 69% 30.01 in 5.0 mi SE 3.5 mph - N/A   Unknown
10:00 AM 83 °F - 67 °F 50% 30.04 in 6 mi ESE 3.5 mph - -   Haze
10:00 AM 82.4 °F 85.4 °F 68.0 °F 62% 30.04 in 5.6 mi ESE 3.5 mph - N/A   Unknown
11:00 AM 84.2 °F 87.3 °F 68.0 °F 58% 30.01 in 5.6 mi SE 3.5 mph - N/A   Unknown
12:00 PM 87.8 °F 91.4 °F 68.0 °F 52% 29.95 in 5.6 mi SE 3.5 mph - N/A   Unknown
1:00 PM 90 °F - 67 °F 38% 29.94 in 6 mi ESE 2.3 mph - -   Haze
1:00 PM 89.6 °F 93.4 °F 68.0 °F 49% 29.92 in 5.6 mi ESE 2.3 mph - N/A   Mostly Cloudy
2:00 PM 91.4 °F 94.0 °F 66.2 °F 43% 29.89 in 5.6 mi East 3.5 mph - N/A   Mostly Cloudy
4:00 PM 92 °F - 65 °F 31% 29.88 in 6 mi ESE 2.3 mph - -   Haze
4:00 PM 91.4 °F 89.1 °F 53.6 °F 28% 29.92 in 5.6 mi ESE 2.3 mph - N/A   Scattered Clouds
5:00 PM 91.4 °F 92.1 °F 62.6 °F 38% 29.86 in 5.6 mi East 3.5 mph - N/A   Scattered Clouds
5:30 PM 89.6 °F 92.2 °F 66.2 °F 46% 29.86 in 5.0 mi East 2.3 mph - N/A   Mostly Cloudy
6:00 PM 87.8 °F 90.4 °F 66.2 °F 49% 29.86 in 5.0 mi East 2.3 mph - N/A   Mostly Cloudy
7:00 PM 86 °F - 69 °F 48% 29.88 in 5 mi Calm Calm - -   Haze
7:00 PM 86.0 °F 90.4 °F 69.8 °F 58% 29.86 in 5.0 mi Calm Calm - N/A   Mostly Cloudy
8:00 PM 84.2 °F 87.3 °F 68.0 °F 58% 29.89 in 5.0 mi NNE 2.3 mph - N/A   Scattered Clouds
9:00 PM 80.6 °F 82.3 °F 64.4 °F 58% 29.89 in 5.0 mi North 2.3 mph - N/A   Scattered Clouds
10:00 PM 79 °F - 68 °F 62% 29.93 in 4 mi Calm Calm - -   Mist
10:00 PM 78.8 °F - 68.0 °F 69% 29.92 in 4.3 mi Calm Calm - N/A   Unknown
11:00 PM 77.0 °F - 68.0 °F 74% 29.92 in 4.3 mi NE 3.5 mph - N/A   Unknown